| time (UTC) | temp F | wind direction | speed MPH | gust MPH | rain 1hr in | rain 24hr in | rain mn in | humidity % | barometer mb |
| 20260902113046 | 53 | 86 | 1.0 | 4.0 | 0.00 | 0.00 | 0.00 | 98 | 1022.8 |
| 20260902112532 | 53 | 103 | 1.0 | 3.0 | 0.00 | 0.00 | 0.00 | 98 | 1022.8 |
| 20260902112031 | 53 | 0 | 0.0 | 3.0 | 0.00 | 0.00 | 0.00 | 98 | 1022.8 |
| 20260902111603 | 53 | 0 | 0.0 | 3.0 | 0.00 | 0.00 | 0.00 | 98 | 1022.9 |
| 20260902111028 | 53 | 0 | 0.0 | 3.0 | 0.00 | 0.00 | 0.00 | 98 | 1022.9 |
| 20260902110530 | 54 | 88 | 0.0 | 3.0 | 0.00 | 0.00 | 0.00 | 98 | 1023.0 |
| 20260902110057 | 54 | 0 | 0.0 | 3.0 | 0.00 | 0.00 | 0.00 | 98 | 1022.8 |
| 20260902105532 | 54 | 135 | 0.0 | 4.0 | 0.00 | 0.00 | 0.00 | 98 | 1022.8 |
| 20260902105032 | 54 | 149 | 0.0 | 4.0 | 0.00 | 0.00 | 0.00 | 98 | 1022.8 |
| 20260902104549 | 53 | 137 | 0.0 | 4.0 | 0.00 | 0.00 | 0.00 | 98 | 1022.6 |
| 20260902104032 | 54 | 121 | 0.0 | 3.0 | 0.00 | 0.00 | 0.00 | 98 | 1022.6 |
| 20260902103531 | 54 | 128 | 0.0 | 3.0 | 0.00 | 0.00 | 0.00 | 98 | 1022.6 |
| 20260902103047 | 54 | 123 | 0.0 | 3.0 | 0.00 | 0.00 | 0.00 | 98 | 1022.5 |
| 20260902102533 | 54 | 126 | 0.0 | 3.0 | 0.00 | 0.00 | 0.00 | 98 | 1022.6 |
| 20260902102030 | 54 | 122 | 0.0 | 3.0 | 0.00 | 0.00 | 0.00 | 98 | 1022.6 |
| 20260902101555 | 54 | 0 | 0.0 | 2.0 | 0.00 | 0.00 | 0.00 | 98 | 1022.7 |
| 20260902101030 | 54 | 94 | 0.0 | 2.0 | 0.00 | 0.00 | 0.00 | 98 | 1022.5 |
| 20260902100531 | 54 | 0 | 0.0 | 2.0 | 0.00 | 0.00 | 0.00 | 98 | 1022.5 |
| 20260902100104 | 54 | 0 | 0.0 | 3.0 | 0.00 | 0.00 | 0.00 | 98 | 1022.2 |
| 20260902095532 | 54 | 0 | 0.0 | 3.0 | 0.00 | 0.00 | 0.00 | 98 | 1022.2 |
| 20260902095032 | 54 | 86 | 1.0 | 3.0 | 0.00 | 0.00 | 0.00 | 98 | 1022.1 |
| 20260902094549 | 54 | 82 | 1.0 | 3.0 | 0.00 | 0.00 | 0.00 | 98 | 1022.3 |
| 20260902094032 | 54 | 84 | 1.0 | 3.0 | 0.00 | 0.00 | 0.00 | 98 | 1022.0 |
| 20260902093532 | 54 | 84 | 1.0 | 3.0 | 0.00 | 0.00 | 0.00 | 98 | 1022.1 |
| 20260902093058 | 54 | 74 | 1.0 | 3.0 | 0.00 | 0.00 | 0.00 | 98 | 1022.3 |
| 20260902092531 | 54 | 71 | 1.0 | 4.0 | 0.00 | 0.00 | 0.00 | 98 | 1022.1 |
| 20260902092033 | 54 | 71 | 2.0 | 4.0 | 0.00 | 0.00 | 0.00 | 98 | 1022.1 |
| 20260902091554 | 54 | 61 | 2.0 | 4.0 | 0.00 | 0.00 | 0.00 | 98 | 1022.0 |
| 20260902091031 | 54 | 63 | 1.0 | 3.0 | 0.00 | 0.00 | 0.00 | 98 | 1022.0 |
| 20260902090533 | 54 | 82 | 1.0 | 3.0 | 0.00 | 0.00 | 0.00 | 98 | 1022.0 |